Time,TemperatureF,DewpointF,PressureIn,WindDirection,WindDirectionDegrees,WindSpeedMPH,WindSpeedGustMPH,Humidity,HourlyPrecipIn,Conditions,Clouds,dailyrainin,SolarRadiationWatts/m^2,SoftwareType,DateUTC
2013-03-02 00:04:00,43.0,21.5,30.33,ENE,71,2.2,3.1,42,0.00,,,0.00,0.0,WUHU216CR1000,2013-03-02 08:04:00,
2013-03-02 00:09:00,43.3,21.2,30.34,ENE,60,0.5,3.1,41,0.00,,,0.00,0.0,WUHU216CR1000,2013-03-02 08:09:00,
2013-03-02 00:14:00,41.8,21.6,30.33,North,355,0.0,2.4,44,0.00,,,0.00,0.0,WUHU216CR1000,2013-03-02 08:14:00,
2013-03-02 00:19:00,41.0,22.2,30.32,North,0,0.0,0.9,47,0.00,,,0.00,0.0,WUHU216CR1000,2013-03-02 08:19:00,
2013-03-02 00:24:00,40.8,22.3,30.34,North,0,0.0,0.0,47,0.00,,,0.00,0.0,WUHU216CR1000,2013-03-02 08:24:00,
2013-03-02 00:29:00,40.7,22.1,30.33,North,0,0.0,0.0,47,0.00,,,0.00,0.0,WUHU216CR1000,2013-03-02 08:29:00,
2013-03-02 00:34:00,40.0,22.3,30.32,WNW,297,1.3,1.5,49,0.00,,,0.00,0.0,WUHU216CR1000,2013-03-02 08:34:00,
2013-03-02 00:39:00,40.5,23.0,30.34,North,0,0.0,1.5,49,0.00,,,0.00,0.0,WUHU216CR1000,2013-03-02 08:39:00,
2013-03-02 00:45:00,40.9,22.8,30.33,NE,53,0.0,1.3,48,0.00,,,0.00,0.0,WUHU216CR1000,2013-03-02 08:45:00,
2013-03-02 00:50:00,41.1,23.0,30.32,ESE,117,1.0,1.5,48,0.00,,,0.00,0.0,WUHU216CR1000,2013-03-02 08:50:00,
2013-03-02 00:55:00,40.8,22.8,30.34,North,0,0.0,2.9,48,0.00,,,0.00,0.0,WUHU216CR1000,2013-03-02 08:55:00,
2013-03-02 01:00:00,40.1,22.8,30.31,NNE,19,0.3,2.9,50,0.00,,,0.00,0.0,WUHU216CR1000,2013-03-02 09:00:00,
2013-03-02 01:05:00,39.7,23.0,30.32,ESE,104,0.3,0.7,51,0.00,,,0.00,0.0,WUHU216CR1000,2013-03-02 09:05:00,
2013-03-02 01:10:00,40.3,23.2,30.31,ESE,117,1.2,2.0,50,0.00,,,0.00,0.0,WUHU216CR1000,2013-03-02 09:10:00,
2013-03-02 01:15:00,40.8,23.4,30.33,SE,132,0.9,2.0,50,0.00,,,0.00,0.0,WUHU216CR1000,2013-03-02 09:15:00,
2013-03-02 01:20:00,40.5,23.3,30.33,North,0,0.0,1.3,50,0.00,,,0.00,0.0,WUHU216CR1000,2013-03-02 09:20:00,
2013-03-02 01:25:00,39.6,23.2,30.31,North,0,0.0,1.3,52,0.00,,,0.00,0.0,WUHU216CR1000,2013-03-02 09:25:00,
2013-03-02 01:30:00,39.4,23.6,30.33,South,172,1.9,2.2,53,0.00,,,0.00,0.0,WUHU216CR1000,2013-03-02 09:30:00,
2013-03-02 01:36:00,39.4,23.4,30.33,WSW,244,1.6,2.6,52,0.00,,,0.00,0.0,WUHU216CR1000,2013-03-02 09:36:00,
2013-03-02 01:41:00,39.0,23.5,30.31,SW,217,1.2,2.6,54,0.00,,,0.00,0.0,WUHU216CR1000,2013-03-02 09:41:00,
2013-03-02 01:46:00,39.4,23.5,30.32,SW,226,2.2,3.3,53,0.00,,,0.00,0.0,WUHU216CR1000,2013-03-02 09:46:00,
2013-03-02 01:51:00,39.3,23.5,30.33,SW,225,0.9,3.3,53,0.00,,,0.00,0.0,WUHU216CR1000,2013-03-02 09:51:00,
2013-03-02 01:56:00,39.5,23.3,30.31,North,0,0.0,2.6,52,0.00,,,0.00,0.0,WUHU216CR1000,2013-03-02 09:56:00,
2013-03-02 02:01:00,39.2,23.3,30.32,SW,221,0.1,1.5,52,0.00,,,0.00,0.0,WUHU216CR1000,2013-03-02 10:01:00,
2013-03-02 02:06:00,39.1,23.5,30.32,NNE,14,0.5,1.3,53,0.00,,,0.00,0.0,WUHU216CR1000,2013-03-02 10:06:00,
2013-03-02 02:11:00,38.9,23.2,30.32,North,0,0.9,1.8,53,0.00,,,0.00,0.0,WUHU216CR1000,2013-03-02 10:11:00,
2013-03-02 02:16:00,38.7,23.2,30.30,NW,320,1.3,1.8,53,0.00,,,0.00,0.0,WUHU216CR1000,2013-03-02 10:16:00,
2013-03-02 02:22:00,37.8,23.5,30.31,NW,320,0.4,1.8,56,0.00,,,0.00,0.0,WUHU216CR1000,2013-03-02 10:22:00,
2013-03-02 02:27:00,37.5,23.5,30.29,West,264,1.9,2.4,57,0.00,,,0.00,0.0,WUHU216CR1000,2013-03-02 10:27:00,
2013-03-02 02:32:00,37.3,23.9,30.30,West,268,2.6,2.9,58,0.00,,,0.00,0.0,WUHU216CR1000,2013-03-02 10:32:00,
2013-03-02 02:37:00,37.5,23.8,30.31,West,269,1.4,2.9,57,0.00,,,0.00,0.0,WUHU216CR1000,2013-03-02 10:37:00,
2013-03-02 02:42:00,37.7,24.0,30.30,WSW,253,1.8,2.6,57,0.00,,,0.00,0.0,WUHU216CR1000,2013-03-02 10:42:00,
2013-03-02 02:47:00,37.6,23.7,30.29,North,0,0.0,2.4,57,0.00,,,0.00,0.0,WUHU216CR1000,2013-03-02 10:47:00,
2013-03-02 02:52:00,37.8,24.1,30.31,ESE,119,0.9,1.8,57,0.00,,,0.00,0.0,WUHU216CR1000,2013-03-02 10:52:00,
2013-03-02 02:57:00,38.7,24.1,30.31,ESE,115,1.8,2.2,55,0.00,,,0.00,0.0,WUHU216CR1000,2013-03-02 10:57:00,
2013-03-02 03:02:00,38.5,23.8,30.30,SE,130,0.6,2.2,55,0.00,,,0.00,0.0,WUHU216CR1000,2013-03-02 11:02:00,
2013-03-02 03:07:00,38.1,23.8,30.29,ESE,107,1.7,3.1,56,0.00,,,0.00,0.0,WUHU216CR1000,2013-03-02 11:07:00,
2013-03-02 03:12:00,37.9,23.4,30.28,ESE,112,2.6,4.2,55,0.00,,,0.00,0.0,WUHU216CR1000,2013-03-02 11:12:00,
2013-03-02 03:17:00,37.3,23.2,30.30,ESE,103,1.1,4.2,56,0.00,,,0.00,0.0,WUHU216CR1000,2013-03-02 11:17:00,
2013-03-02 03:23:00,37.0,23.2,30.29,SE,125,1.7,3.5,57,0.00,,,0.00,0.0,WUHU216CR1000,2013-03-02 11:23:00,
2013-03-02 03:28:00,37.0,23.0,30.28,East,98,0.7,2.6,57,0.00,,,0.00,0.0,WUHU216CR1000,2013-03-02 11:28:00,
2013-03-02 03:33:00,37.2,22.7,30.30,ENE,63,0.5,2.0,55,0.00,,,0.00,0.0,WUHU216CR1000,2013-03-02 11:33:00,
2013-03-02 03:38:00,37.2,22.5,30.30,ENE,58,1.4,2.0,55,0.00,,,0.00,0.0,WUHU216CR1000,2013-03-02 11:38:00,
2013-03-02 03:43:00,35.9,22.1,30.28,NE,37,1.2,2.4,57,0.00,,,0.00,0.0,WUHU216CR1000,2013-03-02 11:43:00,
2013-03-02 03:48:00,35.5,23.0,30.30,NE,35,2.1,2.9,60,0.00,,,0.00,0.0,WUHU216CR1000,2013-03-02 11:48:00,
2013-03-02 03:53:00,35.6,23.1,30.30,NE,47,3.1,3.9,60,0.00,,,0.00,0.0,WUHU216CR1000,2013-03-02 11:53:00,
2013-03-02 03:58:00,35.4,22.6,30.29,NE,47,3.1,4.2,59,0.00,,,0.00,0.0,WUHU216CR1000,2013-03-02 11:58:00,
2013-03-02 04:03:00,35.3,22.5,30.28,NNE,32,0.6,4.2,59,0.00,,,0.00,0.0,WUHU216CR1000,2013-03-02 12:03:00,
2013-03-02 04:08:00,34.6,22.3,30.30,North,0,0.0,3.1,60,0.00,,,0.00,0.0,WUHU216CR1000,2013-03-02 12:08:00,
2013-03-02 04:13:00,34.5,22.6,30.30,NE,35,1.0,2.0,61,0.00,,,0.00,0.0,WUHU216CR1000,2013-03-02 12:13:00,
2013-03-02 04:18:00,34.7,22.9,30.29,North,0,0.0,2.0,62,0.00,,,0.00,0.0,WUHU216CR1000,2013-03-02 12:18:00,
2013-03-02 04:23:00,34.8,22.9,30.29,North,0,0.0,1.3,62,0.00,,,0.00,0.0,WUHU216CR1000,2013-03-02 12:23:00,
2013-03-02 04:28:00,35.3,23.4,30.29,North,6,0.7,1.3,61,0.00,,,0.00,0.0,WUHU216CR1000,2013-03-02 12:28:00,
2013-03-02 04:33:00,35.3,23.0,30.30,WSW,257,1.5,1.8,60,0.00,,,0.00,0.0,WUHU216CR1000,2013-03-02 12:33:00,
2013-03-02 04:39:00,34.8,22.9,30.28,WSW,256,0.8,1.8,61,0.00,,,0.00,0.0,WUHU216CR1000,2013-03-02 12:39:00,
2013-03-02 04:44:00,34.9,23.3,30.29,WSW,247,1.7,2.0,62,0.00,,,0.00,0.0,WUHU216CR1000,2013-03-02 12:44:00,
2013-03-02 04:49:00,34.9,23.2,30.30,WSW,239,0.7,2.2,62,0.00,,,0.00,0.0,WUHU216CR1000,2013-03-02 12:49:00,
2013-03-02 04:54:00,35.0,23.5,30.29,South,188,0.2,2.2,63,0.00,,,0.00,0.0,WUHU216CR1000,2013-03-02 12:54:00,
2013-03-02 04:59:00,35.7,23.8,30.29,SE,135,1.8,2.0,61,0.00,,,0.00,0.0,WUHU216CR1000,2013-03-02 12:59:00,
2013-03-02 05:04:00,35.9,23.6,30.29,SE,146,1.3,2.4,61,0.00,,,0.00,0.0,WUHU216CR1000,2013-03-02 13:04:00,
2013-03-02 05:09:00,36.2,23.7,30.29,SE,143,0.7,2.4,60,0.00,,,0.00,0.0,WUHU216CR1000,2013-03-02 13:09:00,
2013-03-02 05:14:00,36.5,23.6,30.28,East,91,1.2,2.6,59,0.00,,,0.00,0.0,WUHU216CR1000,2013-03-02 13:14:00,
2013-03-02 05:20:00,36.3,23.2,30.29,North,0,0.0,2.6,59,0.00,,,0.00,0.0,WUHU216CR1000,2013-03-02 13:20:00,
2013-03-02 05:25:00,35.1,22.8,30.30,ESE,107,0.1,0.9,60,0.00,,,0.00,0.0,WUHU216CR1000,2013-03-02 13:25:00,
2013-03-02 05:30:00,35.0,23.6,30.28,NW,315,1.8,2.2,63,0.00,,,0.00,0.0,WUHU216CR1000,2013-03-02 13:30:00,
2013-03-02 05:35:00,34.8,23.8,30.30,NW,307,1.2,2.2,64,0.00,,,0.00,0.0,WUHU216CR1000,2013-03-02 13:35:00,
2013-03-02 05:40:00,34.6,23.7,30.30,NW,319,0.4,2.2,64,0.00,,,0.00,0.0,WUHU216CR1000,2013-03-02 13:40:00,
2013-03-02 05:45:00,34.2,23.5,30.31,NW,315,0.7,2.2,65,0.00,,,0.00,0.0,WUHU216CR1000,2013-03-02 13:45:00,
2013-03-02 05:50:00,34.1,23.8,30.29,North,0,0.0,1.1,66,0.00,,,0.00,0.0,WUHU216CR1000,2013-03-02 13:50:00,
2013-03-02 05:55:00,34.4,23.8,30.30,North,0,0.0,0.4,65,0.00,,,0.00,0.0,WUHU216CR1000,2013-03-02 13:55:00,
2013-03-02 06:01:00,34.4,23.6,30.30,North,0,0.0,0.4,65,0.00,,,0.00,0.4,WUHU216CR1000,2013-03-02 14:01:00,
2013-03-02 06:06:00,34.5,23.9,30.29,East,96,0.9,1.8,65,0.00,,,0.00,1.1,WUHU216CR1000,2013-03-02 14:06:00,
2013-03-02 06:11:00,35.3,23.5,30.29,East,80,2.0,3.1,62,0.00,,,0.00,2.1,WUHU216CR1000,2013-03-02 14:11:00,
2013-03-02 06:16:00,34.1,23.0,30.30,ESE,111,0.9,4.2,64,0.00,,,0.00,4.0,WUHU216CR1000,2013-03-02 14:16:00,
2013-03-02 06:21:00,33.5,22.9,30.31,ESE,118,1.5,4.2,65,0.00,,,0.00,6.2,WUHU216CR1000,2013-03-02 14:21:00,
2013-03-02 06:26:00,33.1,23.2,30.30,SE,132,1.1,2.4,67,0.00,,,0.00,8.7,WUHU216CR1000,2013-03-02 14:26:00,
2013-03-02 06:31:00,32.9,23.0,30.29,North,0,0.0,2.0,67,0.00,,,0.00,11.0,WUHU216CR1000,2013-03-02 14:31:00,
2013-03-02 06:36:00,32.7,23.0,30.30,North,0,0.0,0.9,67,0.00,,,0.00,19.8,WUHU216CR1000,2013-03-02 14:36:00,
2013-03-02 06:41:00,33.2,23.7,30.30,North,0,0.0,0.7,68,0.00,,,0.00,47.4,WUHU216CR1000,2013-03-02 14:41:00,
2013-03-02 06:47:00,34.1,24.1,30.31,North,0,0.0,0.0,67,0.00,,,0.00,68.6,WUHU216CR1000,2013-03-02 14:47:00,
2013-03-02 06:52:00,34.9,24.1,30.29,North,0,0.0,0.4,65,0.00,,,0.00,87.7,WUHU216CR1000,2013-03-02 14:52:00,
2013-03-02 06:57:00,36.2,25.1,30.30,North,0,0.0,0.4,64,0.00,,,0.00,107.7,WUHU216CR1000,2013-03-02 14:57:00,
2013-03-02 07:02:00,38.2,24.9,30.30,South,174,1.6,2.4,59,0.00,,,0.00,118.1,WUHU216CR1000,2013-03-02 15:02:00,
2013-03-02 07:07:00,39.5,25.0,30.32,SE,129,1.4,2.4,56,0.00,,,0.00,141.0,WUHU216CR1000,2013-03-02 15:07:00,
2013-03-02 07:12:00,40.8,24.5,30.31,SE,127,1.3,2.2,52,0.00,,,0.00,157.2,WUHU216CR1000,2013-03-02 15:12:00,
2013-03-02 07:17:00,41.6,24.6,30.31,North,0,0.0,2.4,51,0.00,,,0.00,174.0,WUHU216CR1000,2013-03-02 15:17:00,
2013-03-02 07:22:00,42.3,23.2,30.31,SE,146,1.3,2.4,46,0.00,,,0.00,190.9,WUHU216CR1000,2013-03-02 15:22:00,
2013-03-02 07:27:00,43.1,23.8,30.31,North,0,0.0,2.0,46,0.00,,,0.00,208.0,WUHU216CR1000,2013-03-02 15:27:00,
2013-03-02 07:33:00,44.0,22.8,30.30,North,0,0.0,1.8,43,0.00,,,0.00,228.8,WUHU216CR1000,2013-03-02 15:33:00,
2013-03-02 07:38:00,44.3,23.5,30.30,North,0,0.0,0.4,44,0.00,,,0.00,246.4,WUHU216CR1000,2013-03-02 15:38:00,
2013-03-02 07:43:00,45.6,23.2,30.31,NE,43,0.1,1.1,41,0.00,,,0.00,264.2,WUHU216CR1000,2013-03-02 15:43:00,
2013-03-02 07:48:00,45.0,23.2,30.29,NE,44,0.9,1.5,42,0.00,,,0.00,282.0,WUHU216CR1000,2013-03-02 15:48:00,
2013-03-02 07:53:00,45.0,23.7,30.31,NNE,24,0.4,1.5,43,0.00,,,0.00,299.9,WUHU216CR1000,2013-03-02 15:53:00,
2013-03-02 07:58:00,45.8,23.1,30.31,NE,34,0.6,1.3,40,0.00,,,0.00,317.7,WUHU216CR1000,2013-03-02 15:58:00,
2013-03-02 08:03:00,46.6,23.4,30.32,NW,313,1.0,1.5,40,0.00,,,0.00,335.4,WUHU216CR1000,2013-03-02 16:03:00,
2013-03-02 08:08:00,47.5,23.4,30.30,North,0,0.0,1.5,38,0.00,,,0.00,353.0,WUHU216CR1000,2013-03-02 16:08:00,
2013-03-02 08:13:00,48.2,23.6,30.31,West,281,0.5,1.3,38,0.00,,,0.00,370.5,WUHU216CR1000,2013-03-02 16:13:00,
2013-03-02 08:18:00,49.6,23.0,30.29,ENE,60,1.1,2.2,35,0.00,,,0.00,388.2,WUHU216CR1000,2013-03-02 16:18:00,
2013-03-02 08:23:00,49.6,21.4,30.31,NNE,25,1.1,2.9,33,0.00,,,0.00,405.5,WUHU216CR1000,2013-03-02 16:23:00,
2013-03-02 08:29:00,50.4,22.8,30.31,NE,45,0.2,2.9,34,0.00,,,0.00,425.9,WUHU216CR1000,2013-03-02 16:29:00,
2013-03-02 08:34:00,51.9,22.9,30.29,North,0,0.0,2.6,32,0.00,,,0.00,443.0,WUHU216CR1000,2013-03-02 16:34:00,
2013-03-02 08:39:00,54.2,22.4,30.31,ENE,65,0.7,2.6,29,0.00,,,0.00,459.7,WUHU216CR1000,2013-03-02 16:39:00,
2013-03-02 08:44:00,54.4,22.4,30.30,NW,310,0.6,1.3,28,0.00,,,0.00,476.2,WUHU216CR1000,2013-03-02 16:44:00,
2013-03-02 08:49:00,53.9,21.7,30.30,West,261,0.3,1.5,28,0.00,,,0.00,491.7,WUHU216CR1000,2013-03-02 16:49:00,
2013-03-02 08:54:00,54.5,22.4,30.29,North,0,0.0,1.5,28,0.00,,,0.00,508.2,WUHU216CR1000,2013-03-02 16:54:00,
2013-03-02 08:59:00,55.2,22.7,30.31,NE,35,1.1,2.4,28,0.00,,,0.00,526.1,WUHU216CR1000,2013-03-02 16:59:00,
2013-03-02 09:04:00,55.5,21.9,30.31,NW,315,1.3,2.4,27,0.00,,,0.00,522.8,WUHU216CR1000,2013-03-02 17:04:00,
2013-03-02 09:09:00,55.8,22.1,30.29,NNW,331,0.0,2.0,27,0.00,,,0.00,553.7,WUHU216CR1000,2013-03-02 17:09:00,
2013-03-02 09:15:00,56.2,22.0,30.30,North,0,0.0,1.8,26,0.00,,,0.00,568.7,WUHU216CR1000,2013-03-02 17:15:00,
2013-03-02 09:20:00,58.5,22.2,30.30,NNE,12,0.2,1.8,24,0.00,,,0.00,586.3,WUHU216CR1000,2013-03-02 17:20:00,
2013-03-02 09:25:00,58.2,22.0,30.29,NE,37,1.4,2.6,24,0.00,,,0.00,599.8,WUHU216CR1000,2013-03-02 17:25:00,
2013-03-02 09:30:00,58.8,22.3,30.30,ENE,66,1.1,3.1,24,0.00,,,0.00,613.6,WUHU216CR1000,2013-03-02 17:30:00,
2013-03-02 09:35:00,59.1,22.7,30.29,East,94,0.2,3.1,24,0.00,,,0.00,627.2,WUHU216CR1000,2013-03-02 17:35:00,
2013-03-02 09:40:00,60.6,23.4,30.28,NW,315,0.8,2.2,24,0.00,,,0.00,640.0,WUHU216CR1000,2013-03-02 17:40:00,
2013-03-02 09:45:00,61.2,23.6,30.28,SE,131,0.7,2.0,24,0.00,,,0.00,653.5,WUHU216CR1000,2013-03-02 17:45:00,
2013-03-02 09:50:00,61.5,22.9,30.29,NNW,344,0.5,2.6,23,0.00,,,0.00,667.0,WUHU216CR1000,2013-03-02 17:50:00,
2013-03-02 09:55:00,61.5,23.2,30.28,NE,50,1.3,2.6,23,0.00,,,0.00,678.0,WUHU216CR1000,2013-03-02 17:55:00,
2013-03-02 10:00:00,61.8,22.0,30.29,WSW,247,1.8,2.6,22,0.00,,,0.00,690.2,WUHU216CR1000,2013-03-02 18:00:00,
2013-03-02 10:05:00,63.1,22.3,30.30,NW,309,0.0,2.6,21,0.00,,,0.00,693.8,WUHU216CR1000,2013-03-02 18:05:00,
2013-03-02 10:10:00,63.7,23.0,30.30,East,84,0.4,2.4,21,0.00,,,0.00,709.3,WUHU216CR1000,2013-03-02 18:10:00,
2013-03-02 10:16:00,63.4,22.4,30.30,SW,214,1.3,3.5,21,0.00,,,0.00,724.9,WUHU216CR1000,2013-03-02 18:16:00,
2013-03-02 10:21:00,64.0,22.3,30.28,SW,224,0.6,3.5,20,0.00,,,0.00,735.7,WUHU216CR1000,2013-03-02 18:21:00,
2013-03-02 10:26:00,64.4,22.8,30.27,WSW,243,0.5,2.2,20,0.00,,,0.00,748.1,WUHU216CR1000,2013-03-02 18:26:00,
2013-03-02 10:31:00,65.8,23.2,30.28,SSE,159,1.7,3.5,20,0.00,,,0.00,752.1,WUHU216CR1000,2013-03-02 18:31:00,
2013-03-02 10:36:00,66.5,22.7,30.26,NE,55,1.9,3.5,19,0.00,,,0.00,743.0,WUHU216CR1000,2013-03-02 18:36:00,
2013-03-02 10:41:00,66.3,23.1,30.26,ENE,63,0.2,3.5,19,0.00,,,0.00,762.1,WUHU216CR1000,2013-03-02 18:41:00,
2013-03-02 10:46:00,66.6,22.7,30.27,NE,46,1.4,3.5,19,0.00,,,0.00,771.0,WUHU216CR1000,2013-03-02 18:46:00,
2013-03-02 10:51:00,66.5,22.8,30.28,SW,222,1.2,2.9,19,0.00,,,0.00,796.6,WUHU216CR1000,2013-03-02 18:51:00,
2013-03-02 10:56:00,67.5,23.7,30.26,NE,49,2.4,4.2,19,0.00,,,0.00,797.4,WUHU216CR1000,2013-03-02 18:56:00,
2013-03-02 11:01:00,68.7,23.6,30.27,SSE,154,2.2,4.2,18,0.00,,,0.00,796.1,WUHU216CR1000,2013-03-02 19:01:00,
2013-03-02 11:06:00,69.8,24.0,30.27,ESE,121,0.9,4.2,18,0.00,,,0.00,793.9,WUHU216CR1000,2013-03-02 19:06:00,
2013-03-02 11:11:00,70.5,23.4,30.26,SE,129,0.4,3.9,17,0.00,,,0.00,795.6,WUHU216CR1000,2013-03-02 19:11:00,
2013-03-02 11:17:00,70.0,24.1,30.25,South,171,2.2,4.2,18,0.00,,,0.00,812.0,WUHU216CR1000,2013-03-02 19:17:00,
2013-03-02 11:22:00,71.1,23.4,30.26,NE,36,2.2,4.2,17,0.00,,,0.00,828.0,WUHU216CR1000,2013-03-02 19:22:00,
2013-03-02 11:27:00,70.7,23.4,30.26,South,181,2.6,4.6,17,0.00,,,0.00,852.0,WUHU216CR1000,2013-03-02 19:27:00,
2013-03-02 11:32:00,70.3,23.4,30.26,NNW,336,0.9,4.6,17,0.00,,,0.00,765.9,WUHU216CR1000,2013-03-02 19:32:00,
2013-03-02 11:37:00,72.3,23.7,30.25,SE,144,1.6,5.0,16,0.00,,,0.00,843.0,WUHU216CR1000,2013-03-02 19:37:00,
2013-03-02 11:42:00,71.8,23.0,30.25,NW,325,1.8,5.0,16,0.00,,,0.00,849.0,WUHU216CR1000,2013-03-02 19:42:00,
2013-03-02 11:47:00,72.3,21.9,30.26,NE,40,3.9,5.7,15,0.00,,,0.00,831.0,WUHU216CR1000,2013-03-02 19:47:00,
2013-03-02 11:52:00,71.1,19.3,30.25,NNE,24,3.2,6.1,14,0.00,,,0.00,821.0,WUHU216CR1000,2013-03-02 19:52:00,
2013-03-02 11:57:00,71.5,18.7,30.23,NW,324,1.4,6.1,13,0.00,,,0.00,704.3,WUHU216CR1000,2013-03-02 19:57:00,
2013-03-02 12:02:00,71.8,20.4,30.22,NW,313,1.7,5.7,14,0.00,,,0.00,766.3,WUHU216CR1000,2013-03-02 20:02:00,
2013-03-02 12:07:00,72.8,20.5,30.23,NW,308,0.8,5.7,14,0.00,,,0.00,753.0,WUHU216CR1000,2013-03-02 20:07:00,
2013-03-02 12:12:00,73.0,21.1,30.24,NE,44,2.1,5.7,14,0.00,,,0.00,826.0,WUHU216CR1000,2013-03-02 20:12:00,
2013-03-02 12:17:00,73.7,21.4,30.22,NW,321,0.7,5.7,14,0.00,,,0.00,841.0,WUHU216CR1000,2013-03-02 20:17:00,
2013-03-02 12:22:00,74.0,20.8,30.23,SE,143,4.7,5.7,13,0.00,,,0.00,846.0,WUHU216CR1000,2013-03-02 20:22:00,
2013-03-02 12:27:00,74.3,19.9,30.21,WSW,250,3.0,6.4,13,0.00,,,0.00,837.0,WUHU216CR1000,2013-03-02 20:27:00,
2013-03-02 12:32:00,74.3,20.7,30.22,South,180,3.6,10.5,13,0.00,,,0.00,834.0,WUHU216CR1000,2013-03-02 20:32:00,
2013-03-02 12:37:00,73.9,20.3,30.22,SSW,209,4.1,10.5,13,0.00,,,0.00,830.0,WUHU216CR1000,2013-03-02 20:37:00,
2013-03-02 12:42:00,74.4,20.4,30.22,WSW,240,5.2,8.1,13,0.00,,,0.00,810.0,WUHU216CR1000,2013-03-02 20:42:00,
2013-03-02 12:47:00,73.7,20.4,30.21,WNW,288,2.5,6.8,13,0.00,,,0.00,828.0,WUHU216CR1000,2013-03-02 20:47:00,
2013-03-02 12:53:00,73.0,20.4,30.21,WNW,297,3.1,6.4,14,0.00,,,0.00,783.6,WUHU216CR1000,2013-03-02 20:53:00,
2013-03-02 12:58:00,74.0,20.6,30.21,West,269,2.4,6.1,13,0.00,,,0.00,792.1,WUHU216CR1000,2013-03-02 20:58:00,
2013-03-02 13:03:00,75.4,21.1,30.21,SSE,150,4.6,7.2,13,0.00,,,0.00,819.0,WUHU216CR1000,2013-03-02 21:03:00,
2013-03-02 13:08:00,75.9,21.1,30.21,SE,142,2.4,7.2,13,0.00,,,0.00,807.0,WUHU216CR1000,2013-03-02 21:08:00,
2013-03-02 13:13:00,75.3,20.6,30.20,WSW,242,7.1,10.8,13,0.00,,,0.00,795.2,WUHU216CR1000,2013-03-02 21:13:00,
2013-03-02 13:18:00,76.1,20.9,30.19,SW,232,4.8,10.8,13,0.00,,,0.00,771.7,WUHU216CR1000,2013-03-02 21:18:00,
2013-03-02 13:23:00,75.6,20.9,30.19,SE,144,4.3,10.3,13,0.00,,,0.00,742.6,WUHU216CR1000,2013-03-02 21:23:00,
2013-03-02 13:28:00,76.2,20.7,30.19,ESE,118,3.7,9.2,12,0.00,,,0.00,716.0,WUHU216CR1000,2013-03-02 21:28:00,
2013-03-02 13:33:00,77.3,21.3,30.19,SSE,149,6.6,13.2,12,0.00,,,0.00,769.3,WUHU216CR1000,2013-03-02 21:33:00,
2013-03-02 13:38:00,76.0,20.3,30.19,SSE,153,4.0,13.2,12,0.00,,,0.00,760.2,WUHU216CR1000,2013-03-02 21:38:00,
2013-03-02 13:43:00,77.1,19.8,30.19,SSE,154,4.3,11.0,12,0.00,,,0.00,687.5,WUHU216CR1000,2013-03-02 21:43:00,
2013-03-02 13:48:00,76.9,19.9,30.18,East,83,1.8,8.8,12,0.00,,,0.00,616.5,WUHU216CR1000,2013-03-02 21:48:00,
2013-03-02 13:53:00,76.7,19.9,30.19,SSW,208,4.6,7.5,12,0.00,,,0.00,539.3,WUHU216CR1000,2013-03-02 21:53:00,
2013-03-02 13:59:00,76.5,19.9,30.18,South,183,4.2,7.5,12,0.00,,,0.00,377.2,WUHU216CR1000,2013-03-02 21:59:00,
2013-03-02 14:04:00,76.2,19.7,30.16,SW,227,9.0,12.5,12,0.00,,,0.00,608.7,WUHU216CR1000,2013-03-02 22:04:00,
2013-03-02 14:09:00,76.3,19.1,30.17,SW,227,5.2,12.5,12,0.00,,,0.00,633.2,WUHU216CR1000,2013-03-02 22:09:00,
2013-03-02 14:14:00,76.4,18.4,30.16,SW,222,10.4,16.7,11,0.00,,,0.00,384.5,WUHU216CR1000,2013-03-02 22:14:00,
2013-03-02 14:19:00,75.3,17.9,30.16,WSW,239,7.9,16.7,11,0.00,,,0.00,432.3,WUHU216CR1000,2013-03-02 22:19:00,
2013-03-02 14:24:00,76.1,18.6,30.18,SW,230,7.9,14.3,11,0.00,,,0.00,578.5,WUHU216CR1000,2013-03-02 22:24:00,
2013-03-02 14:29:00,76.3,18.9,30.16,WSW,252,8.3,14.3,11,0.00,,,0.00,422.2,WUHU216CR1000,2013-03-02 22:29:00,
2013-03-02 14:34:00,75.8,18.4,30.17,SW,229,10.5,14.5,11,0.00,,,0.00,328.7,WUHU216CR1000,2013-03-02 22:34:00,
2013-03-02 14:39:00,75.1,18.4,30.17,SW,219,6.5,14.5,12,0.00,,,0.00,304.4,WUHU216CR1000,2013-03-02 22:39:00,
2013-03-02 14:44:00,76.0,19.1,30.17,SW,215,8.2,12.7,12,0.00,,,0.00,583.9,WUHU216CR1000,2013-03-02 22:44:00,
2013-03-02 14:49:00,76.8,19.3,30.15,SW,232,8.3,12.7,12,0.00,,,0.00,725.0,WUHU216CR1000,2013-03-02 22:49:00,
2013-03-02 14:54:00,76.9,18.6,30.17,SSW,199,7.4,13.8,11,0.00,,,0.00,364.5,WUHU216CR1000,2013-03-02 22:54:00,
2013-03-02 14:59:00,75.7,18.4,30.17,SW,216,7.0,15.6,12,0.00,,,0.00,266.0,WUHU216CR1000,2013-03-02 22:59:00,
2013-03-02 15:04:00,74.8,18.1,30.16,SW,226,10.8,15.6,12,0.00,,,0.00,282.1,WUHU216CR1000,2013-03-02 23:04:00,
2013-03-02 15:09:00,75.1,19.0,30.17,SW,218,10.2,15.6,12,0.00,,,0.00,419.2,WUHU216CR1000,2013-03-02 23:09:00,
2013-03-02 15:15:00,74.7,19.3,30.15,SW,225,9.5,15.1,12,0.00,,,0.00,262.0,WUHU216CR1000,2013-03-02 23:15:00,
2013-03-02 15:20:00,74.4,19.6,30.15,SW,227,8.3,15.1,13,0.00,,,0.00,251.6,WUHU216CR1000,2013-03-02 23:20:00,
2013-03-02 15:25:00,74.1,19.4,30.16,SSW,201,6.8,13.6,13,0.00,,,0.00,249.3,WUHU216CR1000,2013-03-02 23:25:00,
2013-03-02 15:30:00,74.1,19.7,30.16,SW,234,8.6,13.6,13,0.00,,,0.00,255.2,WUHU216CR1000,2013-03-02 23:30:00,
2013-03-02 15:35:00,74.5,19.4,30.14,SW,222,7.4,11.6,12,0.00,,,0.00,516.7,WUHU216CR1000,2013-03-02 23:35:00,
2013-03-02 15:40:00,75.3,19.8,30.15,SSW,205,8.6,12.3,12,0.00,,,0.00,530.3,WUHU216CR1000,2013-03-02 23:40:00,
2013-03-02 15:45:00,75.8,19.7,30.16,SW,217,8.8,12.3,12,0.00,,,0.00,461.5,WUHU216CR1000,2013-03-02 23:45:00,
2013-03-02 15:50:00,74.7,19.1,30.15,WSW,238,9.0,12.1,12,0.00,,,0.00,170.4,WUHU216CR1000,2013-03-02 23:50:00,
2013-03-02 15:55:00,73.8,18.9,30.15,SW,223,6.2,12.1,12,0.00,,,0.00,126.5,WUHU216CR1000,2013-03-02 23:55:00,
2013-03-02 16:00:00,73.3,18.6,30.14,South,191,5.9,11.0,13,0.00,,,0.00,115.9,WUHU216CR1000,2013-03-03 00:00:00,
2013-03-02 16:05:00,73.2,18.7,30.15,SSW,213,6.3,10.5,13,0.00,,,0.00,130.5,WUHU216CR1000,2013-03-03 00:05:00,
2013-03-02 16:10:00,73.1,18.8,30.15,SW,234,5.1,10.5,13,0.00,,,0.00,153.0,WUHU216CR1000,2013-03-03 00:10:00,
2013-03-02 16:15:00,73.3,18.8,30.13,SW,233,6.9,9.4,13,0.00,,,0.00,216.6,WUHU216CR1000,2013-03-03 00:15:00,
2013-03-02 16:20:00,73.8,19.4,30.14,SW,231,4.1,8.6,13,0.00,,,0.00,221.3,WUHU216CR1000,2013-03-03 00:20:00,
2013-03-02 16:25:00,73.6,19.2,30.14,WSW,246,6.2,10.8,13,0.00,,,0.00,194.4,WUHU216CR1000,2013-03-03 00:25:00,
2013-03-02 16:30:00,73.5,19.7,30.15,SW,234,5.7,10.8,13,0.00,,,0.00,145.1,WUHU216CR1000,2013-03-03 00:30:00,
2013-03-02 16:35:00,72.9,19.5,30.13,SW,234,7.4,11.2,13,0.00,,,0.00,120.6,WUHU216CR1000,2013-03-03 00:35:00,
2013-03-02 16:40:00,72.2,19.1,30.13,SW,224,6.9,13.4,13,0.00,,,0.00,94.7,WUHU216CR1000,2013-03-03 00:40:00,
2013-03-02 16:45:00,71.8,18.8,30.13,SW,225,8.6,13.4,13,0.00,,,0.00,79.6,WUHU216CR1000,2013-03-03 00:45:00,
2013-03-02 16:50:00,71.3,19.0,30.13,SW,232,6.9,13.4,14,0.00,,,0.00,62.1,WUHU216CR1000,2013-03-03 00:50:00,
2013-03-02 16:55:00,70.8,18.7,30.14,SW,230,8.9,12.7,14,0.00,,,0.00,57.8,WUHU216CR1000,2013-03-03 00:55:00,
2013-03-02 17:01:00,70.5,18.9,30.14,SW,214,6.2,12.5,14,0.00,,,0.00,57.1,WUHU216CR1000,2013-03-03 01:01:00,
2013-03-02 17:06:00,70.3,18.6,30.12,SW,218,7.5,12.3,14,0.00,,,0.00,65.1,WUHU216CR1000,2013-03-03 01:06:00,
2013-03-02 17:11:00,70.6,19.0,30.13,SW,222,5.7,12.3,14,0.00,,,0.00,123.5,WUHU216CR1000,2013-03-03 01:11:00,
2013-03-02 17:16:00,70.7,19.0,30.14,SW,221,6.9,11.6,14,0.00,,,0.00,95.1,WUHU216CR1000,2013-03-03 01:16:00,
2013-03-02 17:21:00,70.5,19.0,30.14,SW,235,7.5,11.2,14,0.00,,,0.00,63.5,WUHU216CR1000,2013-03-03 01:21:00,
2013-03-02 17:26:00,70.2,19.2,30.13,SW,218,7.2,11.2,14,0.00,,,0.00,42.8,WUHU216CR1000,2013-03-03 01:26:00,
2013-03-02 17:31:00,69.8,19.4,30.14,SW,225,6.3,10.5,15,0.00,,,0.00,39.4,WUHU216CR1000,2013-03-03 01:31:00,
2013-03-02 17:36:00,69.5,19.6,30.14,SW,225,7.4,11.6,15,0.00,,,0.00,23.1,WUHU216CR1000,2013-03-03 01:36:00,
2013-03-02 17:41:00,69.1,19.4,30.15,SW,225,8.4,11.9,15,0.00,,,0.00,15.9,WUHU216CR1000,2013-03-03 01:41:00,
2013-03-02 17:46:00,68.8,19.5,30.13,SW,224,8.1,11.9,15,0.00,,,0.00,10.0,WUHU216CR1000,2013-03-03 01:46:00,
2013-03-02 17:51:00,68.2,20.0,30.13,SW,224,6.7,11.2,16,0.00,,,0.00,1.9,WUHU216CR1000,2013-03-03 01:51:00,
2013-03-02 17:56:00,67.9,19.9,30.14,SW,229,5.0,11.4,16,0.00,,,0.00,0.9,WUHU216CR1000,2013-03-03 01:56:00,
2013-03-02 18:01:00,67.5,19.8,30.14,SW,233,6.3,11.4,16,0.00,,,0.00,0.4,WUHU216CR1000,2013-03-03 02:01:00,
2013-03-02 18:06:00,67.1,19.5,30.14,SW,223,6.7,11.0,16,0.00,,,0.00,0.2,WUHU216CR1000,2013-03-03 02:06:00,
2013-03-02 18:11:00,66.7,19.4,30.12,SSW,212,6.2,11.0,16,0.00,,,0.00,0.1,WUHU216CR1000,2013-03-03 02:11:00,
2013-03-02 18:16:00,66.2,19.3,30.14,SSW,212,6.1,10.8,16,0.00,,,0.00,0.0,WUHU216CR1000,2013-03-03 02:16:00,
2013-03-02 18:21:00,65.9,19.4,30.13,SW,215,6.6,9.7,17,0.00,,,0.00,0.0,WUHU216CR1000,2013-03-03 02:21:00,
2013-03-02 18:26:00,65.8,19.4,30.13,SSW,207,6.3,9.2,17,0.00,,,0.00,0.1,WUHU216CR1000,2013-03-03 02:26:00,
2013-03-02 18:31:00,65.7,19.4,30.14,SSW,205,6.0,9.4,17,0.00,,,0.00,0.0,WUHU216CR1000,2013-03-03 02:31:00,
2013-03-02 18:36:00,65.8,19.7,30.13,South,180,5.0,9.4,17,0.00,,,0.00,0.0,WUHU216CR1000,2013-03-03 02:36:00,
2013-03-02 18:41:00,65.5,19.8,30.15,SSW,199,5.5,9.2,17,0.00,,,0.00,0.0,WUHU216CR1000,2013-03-03 02:41:00,
2013-03-02 18:46:00,64.8,20.1,30.13,SSW,192,4.1,8.1,18,0.00,,,0.00,0.0,WUHU216CR1000,2013-03-03 02:46:00,
2013-03-02 18:52:00,64.1,20.6,30.14,SSW,203,5.9,9.2,19,0.00,,,0.00,0.0,WUHU216CR1000,2013-03-03 02:52:00,
2013-03-02 18:57:00,64.1,20.7,30.15,SSW,203,5.9,10.8,19,0.00,,,0.00,0.1,WUHU216CR1000,2013-03-03 02:57:00,
2013-03-02 19:02:00,64.1,20.8,30.14,SSW,206,5.7,10.8,19,0.00,,,0.00,0.0,WUHU216CR1000,2013-03-03 03:02:00,
2013-03-02 19:07:00,64.3,20.9,30.15,SSW,202,7.1,12.1,19,0.00,,,0.00,0.0,WUHU216CR1000,2013-03-03 03:07:00,
2013-03-02 19:12:00,64.2,21.1,30.14,SSW,204,6.2,12.1,19,0.00,,,0.00,0.0,WUHU216CR1000,2013-03-03 03:12:00,
2013-03-02 19:17:00,63.7,21.3,30.15,South,190,5.1,10.3,20,0.00,,,0.00,0.0,WUHU216CR1000,2013-03-03 03:17:00,
2013-03-02 19:22:00,63.3,21.6,30.14,SSW,198,7.2,10.1,20,0.00,,,0.00,0.0,WUHU216CR1000,2013-03-03 03:22:00,
2013-03-02 19:27:00,62.9,22.2,30.15,SSW,202,6.3,10.1,21,0.00,,,0.00,0.0,WUHU216CR1000,2013-03-03 03:27:00,
2013-03-02 19:32:00,62.9,22.8,30.13,SSW,195,6.8,10.5,21,0.00,,,0.00,0.0,WUHU216CR1000,2013-03-03 03:32:00,
2013-03-02 19:37:00,62.6,23.3,30.15,SSW,200,7.7,11.2,22,0.00,,,0.00,0.0,WUHU216CR1000,2013-03-03 03:37:00,
2013-03-02 19:43:00,63.0,23.5,30.13,SSW,197,8.4,12.9,22,0.00,,,0.00,0.0,WUHU216CR1000,2013-03-03 03:43:00,
2013-03-02 19:48:00,63.2,23.2,30.15,SSW,196,7.4,13.4,22,0.00,,,0.00,0.0,WUHU216CR1000,2013-03-03 03:48:00,
2013-03-02 19:53:00,63.1,23.0,30.14,SSW,195,6.9,13.4,21,0.00,,,0.00,0.0,WUHU216CR1000,2013-03-03 03:53:00,
2013-03-02 19:58:00,62.8,22.7,30.15,SSW,192,6.8,11.2,21,0.00,,,0.00,0.0,WUHU216CR1000,2013-03-03 03:58:00,
2013-03-02 20:03:00,62.5,22.6,30.14,SSE,166,4.5,11.2,22,0.00,,,0.00,0.0,WUHU216CR1000,2013-03-03 04:03:00,
2013-03-02 20:08:00,61.3,22.6,30.15,SSE,155,4.0,9.0,22,0.00,,,0.00,0.0,WUHU216CR1000,2013-03-03 04:08:00,
2013-03-02 20:13:00,61.0,22.0,30.15,SSE,155,4.0,6.6,22,0.00,,,0.00,0.0,WUHU216CR1000,2013-03-03 04:13:00,
2013-03-02 20:18:00,60.7,21.7,30.15,SSE,147,3.3,5.9,22,0.00,,,0.00,0.0,WUHU216CR1000,2013-03-03 04:18:00,
2013-03-02 20:23:00,60.2,21.6,30.13,SSE,147,3.1,5.7,22,0.00,,,0.00,0.0,WUHU216CR1000,2013-03-03 04:23:00,
2013-03-02 20:28:00,59.7,21.5,30.15,SSE,147,2.5,5.7,23,0.00,,,0.00,0.0,WUHU216CR1000,2013-03-03 04:28:00,
2013-03-02 20:33:00,59.5,21.5,30.15,SSE,147,2.7,4.4,23,0.00,,,0.00,0.1,WUHU216CR1000,2013-03-03 04:33:00,
2013-03-02 20:38:00,59.2,21.3,30.16,SSE,160,2.8,4.4,23,0.00,,,0.00,0.0,WUHU216CR1000,2013-03-03 04:38:00,
2013-03-02 20:43:00,58.8,21.0,30.14,SSE,168,2.3,4.4,23,0.00,,,0.00,0.0,WUHU216CR1000,2013-03-03 04:43:00,
2013-03-02 20:48:00,58.8,20.3,30.15,South,176,3.4,5.3,22,0.00,,,0.00,0.0,WUHU216CR1000,2013-03-03 04:48:00,
2013-03-02 20:53:00,59.2,19.8,30.15,South,176,3.4,5.3,21,0.00,,,0.00,0.0,WUHU216CR1000,2013-03-03 04:53:00,
2013-03-02 20:59:00,59.6,19.1,30.14,SSE,157,3.2,5.5,21,0.00,,,0.00,0.0,WUHU216CR1000,2013-03-03 04:59:00,
2013-03-02 21:00:00,59.7,19.1,30.15,SSE,167,2.6,5.5,21,0.00,,,0.00,0.0,WUHU216CR1000,2013-03-03 05:00:00,
2013-03-02 21:01:00,59.6,19.3,30.15,South,174,2.5,5.5,21,0.00,,,0.00,0.0,WUHU216CR1000,2013-03-03 05:01:00,
2013-03-02 21:02:00,59.6,19.3,30.16,SE,145,1.9,5.5,21,0.00,,,0.00,0.0,WUHU216CR1000,2013-03-03 05:02:00,
2013-03-02 21:07:00,59.1,20.1,30.15,SSE,154,2.3,4.2,22,0.00,,,0.00,0.0,WUHU216CR1000,2013-03-03 05:07:00,
2013-03-02 21:12:00,58.9,20.4,30.16,South,179,1.9,3.9,22,0.00,,,0.00,0.0,WUHU216CR1000,2013-03-03 05:12:00,
2013-03-02 21:17:00,58.8,20.5,30.16,SSE,168,2.3,3.9,22,0.00,,,0.00,0.0,WUHU216CR1000,2013-03-03 05:17:00,
2013-03-02 21:22:00,59.5,20.5,30.15,SSW,199,4.7,8.3,22,0.00,,,0.00,0.0,WUHU216CR1000,2013-03-03 05:22:00,
2013-03-02 21:27:00,60.8,20.1,30.16,SSW,197,5.8,10.5,21,0.00,,,0.00,0.0,WUHU216CR1000,2013-03-03 05:27:00,
2013-03-02 21:32:00,61.3,19.9,30.14,SSW,206,5.9,10.5,20,0.00,,,0.00,0.0,WUHU216CR1000,2013-03-03 05:32:00,
2013-03-02 21:37:00,61.3,19.7,30.16,SSW,204,6.9,12.1,20,0.00,,,0.00,0.0,WUHU216CR1000,2013-03-03 05:37:00,
2013-03-02 21:42:00,60.9,19.7,30.15,SSW,202,4.7,12.1,20,0.00,,,0.00,0.0,WUHU216CR1000,2013-03-03 05:42:00,
2013-03-02 21:47:00,60.9,19.0,30.16,SSW,192,5.9,9.2,20,0.00,,,0.00,0.0,WUHU216CR1000,2013-03-03 05:47:00,
2013-03-02 21:52:00,60.8,18.6,30.15,SSW,210,5.9,9.2,19,0.00,,,0.00,0.0,WUHU216CR1000,2013-03-03 05:52:00,
2013-03-02 21:57:00,60.6,18.2,30.16,SSW,208,4.8,9.0,19,0.00,,,0.00,0.0,WUHU216CR1000,2013-03-03 05:57:00,
2013-03-02 22:02:00,60.3,17.9,30.16,SSW,204,4.3,8.1,19,0.00,,,0.00,0.0,WUHU216CR1000,2013-03-03 06:02:00,
2013-03-02 22:08:00,59.9,17.4,30.16,SSW,204,4.5,8.1,19,0.00,,,0.00,0.0,WUHU216CR1000,2013-03-03 06:08:00,
2013-03-02 22:13:00,59.5,17.3,30.15,SSW,201,3.1,8.1,19,0.00,,,0.00,0.0,WUHU216CR1000,2013-03-03 06:13:00,
2013-03-02 22:18:00,59.1,17.2,30.16,SSW,207,2.8,6.4,19,0.00,,,0.00,0.0,WUHU216CR1000,2013-03-03 06:18:00,
2013-03-02 22:23:00,59.1,17.1,30.15,SSW,197,1.4,3.7,19,0.00,,,0.00,0.0,WUHU216CR1000,2013-03-03 06:23:00,
2013-03-02 22:28:00,58.4,18.6,30.14,NE,49,1.3,3.7,21,0.00,,,0.00,0.0,WUHU216CR1000,2013-03-03 06:28:00,
2013-03-02 22:33:00,55.4,19.6,30.15,ENE,61,1.4,2.6,24,0.00,,,0.00,0.0,WUHU216CR1000,2013-03-03 06:33:00,
2013-03-02 22:38:00,53.8,20.9,30.13,ENE,59,4.5,5.3,27,0.00,,,0.00,0.0,WUHU216CR1000,2013-03-03 06:38:00,
2013-03-02 22:43:00,51.3,21.7,30.15,NE,51,3.9,5.3,31,0.00,,,0.00,0.0,WUHU216CR1000,2013-03-03 06:43:00,
2013-03-02 22:48:00,49.8,21.8,30.13,North,3,2.7,5.3,33,0.00,,,0.00,0.0,WUHU216CR1000,2013-03-03 06:48:00,
2013-03-02 22:53:00,49.0,21.6,30.15,North,9,3.3,5.0,34,0.00,,,0.00,0.0,WUHU216CR1000,2013-03-03 06:53:00,
2013-03-02 22:58:00,51.0,20.8,30.15,North,11,2.0,4.8,30,0.00,,,0.00,0.0,WUHU216CR1000,2013-03-03 06:58:00,
2013-03-02 23:04:00,51.1,20.4,30.13,North,353,3.5,5.5,30,0.00,,,0.00,0.0,WUHU216CR1000,2013-03-03 07:04:00,
2013-03-02 23:09:00,57.2,17.9,30.13,SSE,159,2.1,8.6,21,0.00,,,0.00,0.0,WUHU216CR1000,2013-03-03 07:09:00,
2013-03-02 23:14:00,57.4,17.6,30.12,NW,315,3.1,8.6,21,0.00,,,0.00,0.0,WUHU216CR1000,2013-03-03 07:14:00,
2013-03-02 23:19:00,58.6,16.6,30.13,SW,224,2.9,7.7,19,0.00,,,0.00,0.0,WUHU216CR1000,2013-03-03 07:19:00,
2013-03-02 23:24:00,56.9,17.9,30.12,NW,309,3.9,7.7,22,0.00,,,0.00,0.0,WUHU216CR1000,2013-03-03 07:24:00,
2013-03-02 23:29:00,56.1,18.1,30.14,NW,315,5.9,7.9,22,0.00,,,0.00,0.0,WUHU216CR1000,2013-03-03 07:29:00,
2013-03-02 23:34:00,56.1,18.3,30.14,NNW,336,5.2,7.9,23,0.00,,,0.00,0.0,WUHU216CR1000,2013-03-03 07:34:00,
2013-03-02 23:39:00,54.9,18.8,30.13,North,1,4.0,7.0,24,0.00,,,0.00,0.0,WUHU216CR1000,2013-03-03 07:39:00,
2013-03-02 23:44:00,55.5,18.3,30.13,ENE,57,3.6,6.1,23,0.00,,,0.00,0.0,WUHU216CR1000,2013-03-03 07:44:00,
2013-03-02 23:50:00,55.6,18.4,30.13,ENE,63,1.7,5.0,23,0.00,,,0.00,0.0,WUHU216CR1000,2013-03-03 07:50:00,
2013-03-02 23:55:00,55.5,17.9,30.13,SW,230,0.1,4.8,23,0.00,,,0.00,0.0,WUHU216CR1000,2013-03-03 07:55:00,